C/2018 R5 ( Lemmon )

Japanese version
Home page
Updated on September 22, 2018

---------------------------------------------------------------------

* Profile

Discovery Date September 8, 2018
Magnitude 19.0 mag
Discoverer A. D. Grauer (Mount Lemmon)

* Orbital Elements

Epoch 2018 Dec. 28.0 TT = JDT 2458480.5
T 2019 Jan.  9.95708 TT                                 MPCW
q   3.6213350            (2000.0)            P               Q
n   0.00903245     Peri.  178.00606     +0.98874976     -0.00221194
a  22.8348995      Node   171.14241     -0.14713062     +0.16579319
e   0.8414123      Incl.  103.75551     -0.02695340     -0.98615806
P 109
From 140 observations 2018 July 5-Sept. 18, mean residual 0".4.

* Magnitudes Graph

        m1 = 11.0 + 5 log d + 10.0 log r

---------------------------------------------------------------------

The orbital elements are published on M.P.E.C. 2018-S50.
The magnitudes graphs are made with Comet for Windows.

---------------------------------------------------------------------

Copyright(C) Seiichi Yoshida (comet@aerith.net). All rights reserved.